Date,TemperatureHighF,TemperatureAvgF,TemperatureLowF,DewpointHighF,DewpointAvgF,DewpointLowF,HumidityHigh,HumidityAvg,HumidityLow,PressureMaxIn,PressureMinIn,WindSpeedMaxMPH,WindSpeedAvgMPH,GustSpeedMaxMPH,PrecipitationSumIn
2013-3-1,26,18,5,11,8,-3,81,66,42,0.00,40.00,10,7,18,0.00
2013-3-2,27,10,-5,9,0,-11,81,66,41,0.00,40.00,10,3,14,0.00
2013-3-3,34,8,-17,10,-5,-25,78,59,26,0.00,40.00,6,2,11,0.00
2013-3-4,35,15,-10,13,0,-17,78,55,28,0.00,40.00,7,3,14,0.00
2013-3-5,29,22,19,18,14,8,88,72,49,0.00,40.00,10,6,17,0.00
2013-3-6,27,21,8,20,16,4,92,81,59,0.00,40.00,7,4,13,0.03
2013-3-7,39,20,7,16,12,3,88,72,39,0.00,40.00,5,2,10,0.01
2013-3-8,45,26,7,21,14,3,84,62,34,0.00,40.00,8,4,17,0.00
2013-3-9,36,32,28,32,26,18,95,80,57,0.00,40.00,7,5,16,0.26
2013-3-10,33,31,27,32,28,23,97,88,79,0.00,40.00,10,6,21,0.21
2013-3-11,27,24,18,26,22,15,94,90,84,0.00,40.00,10,8,19,0.01
2013-3-12,22,18,16,16,14,10,87,83,73,0.00,40.00,10,6,18,0.00
2013-3-13,31,18,6,13,8,-1,86,65,37,0.00,40.00,10,6,20,0.21
2013-3-14,41,18,-9,24,6,-16,81,62,34,0.00,40.00,7,3,16,0.03
2013-3-15,31,25,11,26,15,3,83,67,45,0.00,40.00,8,6,15,0.01
2013-3-16,24,15,6,11,6,1,82,69,52,0.00,40.00,8,4,18,0.08
2013-3-17,31,12,-13,5,-5,-20,76,50,22,0.00,40.00,6,4,17,0.01
2013-3-18,32,23,16,25,17,6,92,77,58,0.00,40.00,8,5,19,0.00
2013-3-19,25,18,14,15,10,6,84,70,49,0.00,40.00,11,7,26,0.00
2013-3-20,19,14,6,11,7,0,84,74,58,0.00,40.00,9,6,18,0.00
2013-3-21,24,17,1,12,10,-6,84,75,59,0.00,40.00,7,5,14,0.00
2013-3-22,32,18,-7,20,11,-14,84,74,60,0.00,40.00,6,2,13,0.10
2013-3-23,31,26,22,21,18,16,81,73,62,0.00,40.00,6,4,11,0.06
2013-3-24,32,25,18,22,18,10,87,74,61,0.00,40.00,10,6,18,0.01
2013-3-25,32,22,8,23,16,4,93,79,61,0.00,40.00,10,4,20,0.00
2013-3-26,37,29,20,26,21,17,90,75,51,0.00,40.00,8,4,16,0.00
2013-3-27,43,30,17,22,17,14,89,64,35,0.00,40.00,9,3,19,0.00
2013-3-28,49,39,23,19,17,15,81,46,27,0.00,40.00,6,3,12,0.00
2013-3-29,54,32,8,22,14,4,87,56,20,0.00,40.00,5,2,12,0.00
2013-3-30,38,34,26,36,28,-100,97,85,54,0.00,40.00,7,4,15,0.35
2013-3-31,37,31,22,34,23,7,98,72,44,0.00,40.00,15,7,32,0.01